User: anonymous   Login
Location: Béaulencourt
(50.0796°N, 2.8795°E)
Time: 13:15:35
(UTC+00:00)
Language:

Cosmos 1441 Rocket - Orbit

View from above orbital plane
View from above orbital plane
View from above satellite
View from above satellite

Ground track
Ground track

The orbit is defined by the following mean orbital elements,

1 13819U          26073.22561870 +.00000000 +00000-0 +38300-3 0 00001
2 13819  81.1059 356.6865 0017666  36.1797 324.0639 15.46531792    06
Epoch (UTC): 14 March 2026 05:24:53
Eccentricity: 0.0017666
inclination: 81.1059°
perigee height: 415 km
apogee height: 439 km
right ascension of ascending node: 356.6865°
argument of perigee: 36.1797°
revolutions per day: 15.46531792
mean anomaly at epoch: 324.0639°

The dashed part of the orbit path shows where the satellite is in the earth's shadow,  

DLR